WetterOnline ( https://www.wetteronline.de )

Wetter aktuell Garmisch-Partenkirchen

Aktuelles Wetter: Garmisch-Partenkirchen (719m)

6-stündlich | Neueste Meldungen
Ortszeit Temperatur Wetter
Sa, 15.05. 2:00 7.4° C leichter Regen
Fr, 14.05. 20:00 13.2° C bedeckt
Fr, 14.05. 14:00 13.8° C bedeckt
Fr, 14.05. 8:00 6.9° C wolkig
Fr, 14.05. 2:00 6.8° C bedeckt
Do, 13.05. 20:00 8.0° C bedeckt
Do, 13.05. 14:00 11.4° C bewölkt
Do, 13.05. 8:00 7.2° C Sprühregen
Ortszeit Temperatur Wetter
Sa, 15.05. 5:00 6.9° C Sprühregen
Sa, 15.05. 4:50 6.9° C Sprühregen
Sa, 15.05. 4:40 6.9° C Sprühregen
Sa, 15.05. 4:30 7.3° C Sprühregen
Sa, 15.05. 4:20 7.3° C Sprühregen
Sa, 15.05. 4:10 7.3° C Sprühregen
Sa, 15.05. 4:00 7.3° C Sprühregen
Sa, 15.05. 3:30 7.3° C leichter Regen
Sa, 15.05. 3:00 7.4° C leichter Regen
Sa, 15.05. 2:30 7.4° C leichter Regen
Sa, 15.05. 2:00 7.4° C leichter Regen
Sa, 15.05. 1:30 7.5° C leichter Regen
Ortszeit Relative Feuchte Sichtweite
Sa, 15.05. 2:00 96% 18 km
Fr, 14.05. 20:00 58% >70 km
Fr, 14.05. 14:00 44% >70 km
Fr, 14.05. 8:00 83% 65 km
Fr, 14.05. 2:00 97% 60 km
Do, 13.05. 20:00 92% >70 km
Do, 13.05. 14:00 69% >70 km
Do, 13.05. 8:00 95% 55 km
Ortszeit Relative Feuchte Sichtweite
Sa, 15.05. 5:00 96% 50 km
Sa, 15.05. 4:50 96% -
Sa, 15.05. 4:40 95% -
Sa, 15.05. 4:30 95% 27 km
Sa, 15.05. 4:20 95% -
Sa, 15.05. 4:10 97% -
Sa, 15.05. 4:00 97% 15 km
Sa, 15.05. 3:30 96% 23 km
Sa, 15.05. 3:00 97% 19 km
Sa, 15.05. 2:30 97% 18 km
Sa, 15.05. 2:00 96% 18 km
Sa, 15.05. 1:30 91% 18 km
Ortszeit Niederschlagsmenge Niederschlagsart
Sa, 15.05. 2:00 3 l/m2 in 6 Std. Regen
Fr, 14.05. 20:00 0.1 l/m2 in 12 Std. Regen
Fr, 14.05. 14:00 0.0 l/m2 in 6 Std. -
Fr, 14.05. 8:00 0.1 l/m2 in 12 Std. -
Fr, 14.05. 2:00 0.1 l/m2 in 6 Std. Regen
Do, 13.05. 20:00 2 l/m2 in 12 Std. Regen
Do, 13.05. 14:00 0.2 l/m2 in 6 Std. Regen
Do, 13.05. 8:00 2 l/m2 in 12 Std. Regen
Ortszeit Niederschlagsmenge Niederschlagsart
Sa, 15.05. 5:00 0.1 l/m2 in 1 Std. Regen
Sa, 15.05. 4:50 keine Meldung -
Sa, 15.05. 4:40 keine Meldung -
Sa, 15.05. 4:30 0.1 l/m2 in 1 Std. -
Sa, 15.05. 4:20 keine Meldung -
Sa, 15.05. 4:10 keine Meldung -
Sa, 15.05. 4:00 1.0 l/m2 in 1 Std. Regen
Sa, 15.05. 3:30 0.7 l/m2 in 1 Std. -
Sa, 15.05. 3:00 1.0 l/m2 in 1 Std. Regen
Sa, 15.05. 2:30 0.6 l/m2 in 1 Std. -
Sa, 15.05. 2:00 1.3 l/m2 in 1 Std. Regen
Sa, 15.05. 1:30 0.7 l/m2 in 1 Std. -
Ortszeit Stärke Spitze Richtung
km/h Bft. km/h Grad Sektor
Sa, 15.05. 2:00 2 1 19 240° SW
Fr, 14.05. 20:00 4 1 25 90° O
Fr, 14.05. 14:00 7 2 18 50° NO
Fr, 14.05. 8:00 4 1 11 180° S
Fr, 14.05. 2:00 4 1 7 190° S
Do, 13.05. 20:00 0 0 29 - -
Do, 13.05. 14:00 4 1 11 120° SO
Do, 13.05. 8:00 0 0 7 - -
Ortszeit Stärke Spitze Richtung
km/h Bft. km/h Grad Sektor
Sa, 15.05. 5:00 4 1 7 210° SW
Sa, 15.05. 4:50 4 1 - 210° SW
Sa, 15.05. 4:40 4 1 - 240° SW
Sa, 15.05. 4:30 4 1 7 60° NO
Sa, 15.05. 4:20 4 1 - 60° NO
Sa, 15.05. 4:10 4 1 - 40° NO
Sa, 15.05. 4:00 4 1 7 100° O
Sa, 15.05. 3:30 0 0 7 - -
Sa, 15.05. 3:00 2 1 4 230° SW
Sa, 15.05. 2:30 0 0 4 - -
Sa, 15.05. 2:00 2 1 11 240° SW
Sa, 15.05. 1:30 4 1 11 120° SO
Ortszeit Untergrenze Bedeckung Gattung
total tief tief mittel hoch
Sa, 15.05. 2:00 1020 m 7/8 8/8 - - -
Fr, 14.05. 20:00 1500 m 8/8 8/8 - - -
Fr, 14.05. 14:00 2100 m 8/8 8/8 - - -
Fr, 14.05. 8:00 2700 m 6/8 6/8 - - -
Fr, 14.05. 2:00 150 m 8/8 8/8 - - -
Do, 13.05. 20:00 2100 m 8/8 8/8 - - -
Do, 13.05. 14:00 540 m 8/8 7/8 - - -
Do, 13.05. 8:00 450 m 8/8 8/8 - - -
Ortszeit Bedeckungsgrad in Achtel und Wolkenuntergrenze
Sa, 15.05. 5:00 3(90m) 7(210m) 8(330m)
Sa, 15.05. 4:50 3(90m) 7(210m) 8(330m)
Sa, 15.05. 4:40 8(150m)
Sa, 15.05. 4:30 7(120m) 8(330m)
Sa, 15.05. 4:20 7(120m) 8(330m)
Sa, 15.05. 4:10 7(120m) 8(300m)
Sa, 15.05. 4:00 5(90m) 6(210m) 7(1320m)
Sa, 15.05. 3:30 1(90m) 6(990m) 8(1230m)
Sa, 15.05. 3:00 1(60m) 5(1350m) 7(1500m)
Sa, 15.05. 2:30 3(870m) 8(1440m)
Sa, 15.05. 2:00 6(1020m) 7(1290m) 8(1320m)
Sa, 15.05. 1:30 4(990m) 7(1320m) 7(1500m)
Ortszeit Luftdruck NN (hPa) Tendenz (hPa in 3 Std.)
Sa, 15.05. 2:00 1013 + 1,3
Fr, 14.05. 20:00 1008 + 0,3
Fr, 14.05. 14:00 1008 + 0,1
Fr, 14.05. 8:00 1010 - 0,1
Fr, 14.05. 2:00 1011 + 0,1
Do, 13.05. 20:00 1009 + 0,9
Do, 13.05. 14:00 1007 - 0,7
Do, 13.05. 8:00 1010 - 0,3
Ortszeit Luftdruck NN (hPa) Tendenz (hPa in 3 Std.)
Sa, 15.05. 5:00 1013 - 0,2
Sa, 15.05. 4:50 1013 keine Meldung
Sa, 15.05. 4:40 1013 keine Meldung
Sa, 15.05. 4:30 1013 - 0,2
Sa, 15.05. 4:20 1013 keine Meldung
Sa, 15.05. 4:10 1013 keine Meldung
Sa, 15.05. 4:00 1013 - 0,1
Sa, 15.05. 3:30 1013 + 0,2
Sa, 15.05. 3:00 1013 + 0,7
Sa, 15.05. 2:30 1013 + 0,9
Sa, 15.05. 2:00 1013 + 1,3
Sa, 15.05. 1:30 1013 + 1,6
Ortszeit Schneehöhe (cm)
Sa, 15.05. 2:00 0
Fr, 14.05. 20:00 0
Fr, 14.05. 14:00 0
Fr, 14.05. 8:00 0
Fr, 14.05. 2:00 0
Do, 13.05. 20:00 0
Do, 13.05. 14:00 0
Do, 13.05. 8:00 0
Ortszeit Schneehöhe (cm)
Sa, 15.05. 5:00 0
Sa, 15.05. 4:50 0
Sa, 15.05. 4:40 0
Sa, 15.05. 4:30 0
Sa, 15.05. 4:20 0
Sa, 15.05. 4:10 0
Sa, 15.05. 4:00 0
Sa, 15.05. 3:30 0
Sa, 15.05. 3:00 0
Sa, 15.05. 2:30 0
Sa, 15.05. 2:00 0
Sa, 15.05. 1:30 0
Link zu dieser Seite / Seite empfehlen

Das Wetter in ...